Location: Arbon
(43.0005°N, 0.7472°E)
Time: 01:18:25
(UTC+00:00)

Cosmos 2026 Rocket - Pass Details

Date: 07 August 2020
Orbit: 940 x 1000 km, 82.9° (Epoch: 27 September)

Event Time Altitude Azimuth Distance (km) Brightness Sun altitude
Rises 01:41:35 0° 350° (N) 3,615 7.8 -26.5°
Reaches altitude 10° 01:44:04 10° 349° (N) 2,669 6.9 -26.3°
Maximum altitude 01:50:08 76° 265° (W) 978 3.8 -25.8°
Enters shadow 01:51:03 64° 205° (SSW) 1,048 3.8 -25.7°
